[[{"header":{"parameterUnit":"m.s-1","parameterCategory":1,"la1":30.2992,"la2":30.254,"lo1":-89.0895,"lo2":-89.0443,"dy":0.0025,"dx":0.0025,"nx":19,"ny":19,"refTime":"2026-05-10T09:00:00:Z","depth":0,"parameterNumber":2,"parameterNumberName":"U-component_of_WINDS"},"data":[0,0,0,-0.725,-0.725,-0.7249,-0.7249,-0.725,-0.725,0,0,0,0,0,0,0,0,0,0,0,-0.7249,-0.7249,-0.725,-0.725,-0.7249,-0.7249,-0.725,-0.725,0,0,0,0,0,0,0,0,0,0,0,-0.7249,-0.7249,-0.7249,-0.725,-0.7249,-0.7249,-0.725,-0.725,0,0,0,0,0,0,0,0,0,0,-0.725,-0.7248,-0.7249,-0.7249,-0.725,-0.7249,-0.7249,-0.725,-0.725,-0.725,0,-0.7248,0,-0.7249,-0.725,-0.725,0,0,0,-0.725,-0.7248,-0.7249,-0.7249,-0.725,-0.7249,-0.725,-0.725,-0.725,-0.725,-0.7248,-0.7248,-0.7249,-0.725,-0.725,-0.7246,-0.7246,0,0,-0.725,-0.7248,-0.7249,-0.7249,-0.7247,-0.725,-0.725,-0.725,-0.7248,-0.7248,-0.7248,-0.7249,-0.725,-0.725,-0.7246,-0.7246,0,0,0,-0.725,-0.7248,-0.7249,-0.7249,-0.7249,-0.725,-0.725,-0.7248,-0.7249,-0.7248,-0.7249,-0.725,-0.725,-0.7246,-0.7246,-0.724,0,0,0,-0.725,-0.7248,-0.7249,-0.7248,-0.7249,-0.7248,-0.7248,-0.7249,-0.7249,-0.7249,-0.725,-0.725,-0.7246,-0.7246,-0.7241,-0.7237,0,0,0,-0.7249,-0.7248,-0.7247,-0.7247,-0.7247,-0.7248,-0.7249,-0.7249,-0.7249,-0.725,-0.725,-0.7246,-0.7246,-0.7241,-0.7238,-0.7236,0,0,0,-0.7247,-0.7241,-0.7247,-0.7241,-0.7247,-0.7245,-0.7249,-0.7247,-0.7247,-0.725,-0.7246,-0.7246,-0.7241,-0.7238,-0.7236,-0.7233,-0.7232,0,0,-0.7238,-0.724,-0.7237,-0.7242,-0.7238,-0.7245,-0.7241,-0.7243,-0.7246,-0.7246,-0.7246,-0.724,-0.7238,-0.7236,-0.7228,-0.7226,0,0,0,-0.7233,-0.7231,-0.7231,-0.723,-0.7233,-0.7235,-0.7238,-0.724,-0.724,-0.7245,-0.724,-0.7238,-0.7238,-0.7236,-0.7235,-0.7235,-0.7245,-0.7245,-0.7245,-0.7215,-0.722,-0.7216,-0.7221,-0.7222,-0.7227,-0.7228,-0.7232,-0.7235,-0.7235,-0.7234,-0.7228,-0.7226,-0.7226,-0.7225,-0.7234,-0.7234,-0.7234,-0.7234,-0.7202,-0.7199,-0.7208,-0.7206,-0.7213,-0.7212,-0.7219,-0.7223,-0.7224,-0.7228,-0.7227,-0.723,-0.7224,-0.7224,-0.7233,-0.7233,-0.7233,-0.7233,-0.7233,-0.7189,-0.7188,-0.7192,-0.7194,-0.7197,-0.7204,-0.7206,-0.7212,-0.7218,-0.7217,-0.7218,-0.7218,-0.7219,-0.7218,-0.7218,-0.7218,-0.7218,-0.7218,-0.7218,-0.7173,-0.7177,-0.7177,-0.7183,-0.7185,-0.7189,-0.7198,-0.7202,-0.7207,-0.7211,-0.7211,-0.7216,-0.7223,-0.7224,-0.7217,-0.7217,-0.7218,-0.7218,-0.7218,-0.7155,-0.7161,-0.7161,-0.7164,-0.7173,-0.7176,-0.7185,-0.7192,-0.7196,-0.7197,-0.7204,-0.7209,-0.7211,-0.7211,-0.7212,-0.7203,-0.7203,-0.7203,-0.7203,-0.7143,-0.7146,-0.7149,-0.7154,-0.716,-0.7169,-0.7172,-0.7181,-0.7191,-0.7195,-0.7198,-0.72,-0.7201,-0.7203,-0.7204,-0.7204,-0.7193,-0.7193,-0.7193,-0.7133,-0.7137,-0.7136,-0.7146,-0.7155,-0.7163,-0.7166,-0.7173,-0.7186,-0.7193,-0.7198,-0.7198,-0.7202,-0.7203,-0.7207,-0.7208,-0.721,0,0]},{"header":{"parameterUnit":"m.s-1","parameterCategory":1,"la1":30.2992,"la2":30.254,"lo1":-89.0895,"lo2":-89.0443,"dy":0.0025,"dx":0.0025,"nx":19,"ny":19,"refTime":"2026-05-10T09:00:00:Z","depth":0,"parameterNumber":3,"parameterNumberName":"V-component_of_WINDS"},"data":[0,0,0,3.7269,3.7268,3.7214,3.7214,3.7142,3.7142,0,0,0,0,0,0,0,0,0,0,0,3.7286,3.7285,3.7269,3.7267,3.7214,3.7214,3.7142,3.7142,0,0,0,0,0,0,0,0,0,0,0,3.7286,3.7285,3.7285,3.7267,3.7214,3.7214,3.7143,3.7183,0,0,0,0,0,0,0,0,0,0,3.7235,3.7253,3.7286,3.7285,3.7267,3.7214,3.7214,3.7185,3.7181,3.7166,0,3.7156,0,3.7148,3.7137,3.7137,0,0,0,3.7266,3.7257,3.7242,3.7285,3.7267,3.7214,3.7238,3.7183,3.7178,3.716,3.7155,3.7153,3.7147,3.7137,3.7136,3.7066,3.7066,0,0,3.7269,3.7276,3.7245,3.7239,3.725,3.7239,3.7236,3.718,3.7174,3.7155,3.7151,3.7146,3.7136,3.7136,3.7066,3.7066,0,0,0,3.7278,3.7278,3.7264,3.7242,3.7232,3.7238,3.7234,3.7176,3.7171,3.715,3.7145,3.7136,3.7135,3.7067,3.7066,3.7063,0,0,0,3.728,3.7284,3.7266,3.7269,3.7234,3.7204,3.7232,3.7175,3.7168,3.7145,3.7136,3.7134,3.7067,3.7067,3.7064,3.706,0,0,0,3.7289,3.7285,3.7278,3.727,3.7248,3.7205,3.7197,3.7173,3.7165,3.7137,3.7134,3.7067,3.7067,3.7064,3.7061,3.7044,0,0,0,3.7299,3.7274,3.7278,3.7247,3.7248,3.7204,3.7197,3.7163,3.7138,3.7135,3.7067,3.7066,3.7065,3.7061,3.7045,3.7032,3.7028,0,0,3.7271,3.727,3.7252,3.7254,3.7212,3.7212,3.7168,3.7136,3.7125,3.7086,3.7084,3.7064,3.7061,3.7045,3.6999,3.6996,0,0,0,3.7245,3.7232,3.7219,3.7198,3.7175,3.7155,3.713,3.7118,3.7085,3.7107,3.7053,3.7051,3.7041,3.7034,3.7031,3.7022,3.7064,3.7064,3.7064,3.7215,3.7205,3.7173,3.7157,3.7135,3.7111,3.7092,3.7071,3.7065,3.7052,3.704,3.7015,3.7007,3.7005,3.6996,3.7033,3.7033,3.7033,3.7033,3.7173,3.7153,3.7147,3.7115,3.7103,3.7074,3.7049,3.7046,3.7016,3.7022,3.7013,3.7021,3.7002,3.6993,3.7032,3.7032,3.7032,3.7032,3.7032,3.7152,3.7141,3.7129,3.7097,3.7073,3.7056,3.7029,3.7018,3.7007,3.6998,3.6984,3.6984,3.6983,3.6992,3.6992,3.6992,3.6992,3.6992,3.6992,3.7136,3.7123,3.7102,3.7077,3.7062,3.7041,3.7016,3.7,3.6979,3.6973,3.6973,3.6967,3.7002,3.7011,3.699,3.6991,3.6991,3.6991,3.6991,3.7097,3.7105,3.7073,3.7059,3.7028,3.7005,3.6992,3.696,3.6945,3.6932,3.6928,3.6956,3.6954,3.6956,3.6963,3.6931,3.6931,3.6931,3.6931,3.708,3.7079,3.7045,3.7022,3.6998,3.6984,3.6947,3.6927,3.6906,3.6896,3.6899,3.6907,3.691,3.6906,3.691,3.6916,3.6873,3.6873,3.6873,3.7056,3.7052,3.7024,3.7007,3.6982,3.6961,3.6925,3.6897,3.6875,3.687,3.6887,3.689,3.6904,3.6909,3.6905,3.691,3.6922,0,0]}]]